Location: Владивосток
(43.1151°N, 131.8856°E)
Time: 02:35:35
(UTC+10:00)

FO-29 - Pass Details

Date: 04 May 2024
Orbit: 801 x 1320 km, 98.6° (Epoch: 19 May)

Event Time Altitude Azimuth Distance (km) Brightness Sun altitude
Rises 02:52:31 0° 14° (NNE) 4,303 14.1 -26.3°
Reaches altitude 10° 02:55:15 10° 16° (NNE) 3,349 13.3 -26.1°
Maximum altitude 03:03:09 75° 102° (ESE) 1,354 10.1 -25.4°
Enters shadow 03:06:16 41° 179° (S) 1,805 10.4 -25.1°
